Home   Weather   Kalisz   Past weeks

Flag for Poland Past Weather in Kalisz, Poland — Yesterday and Last 2 Weeks

Now
19 °F

Fog.


Feels Like: 19 °F
Forecast: 14 / 22 °F
Wind: 1 mph from West

Location: Kalisz

Current Time: Jan 18, 2017 at 7:36:56 pm

Latest Report: Jan 18, 2017 at 6:00 pm


Visibility: 0 mi

Pressure: 30.78 "Hg

Humidity: 98%

Dew Point: 18 °F

Location of KaliszLocation

Past Weather in Kalisz — Graph

°F

Kalisz Temperature Yesterday

Maximum temperature yesterday: 29 °F (at 2:00 pm)
Minimum temperature yesterday: 14 °F (at 11:00 pm)
Average temperature yesterday: 23 °F

High & Low Weather Summary for the Past Weeks

 TemperatureHumidityPressure
High39 °F (Jan 13, 1:00 pm)100% (Jan 12, 4:00 am)30.80 "Hg (Jan 12, 4:00 am)
Low4 °F (Jan 7, 1:00 am)51% (Jan 8, 2:00 pm)29.23 "Hg (Jan 13, 11:00 am)
Average24 °F86%30.08 "Hg
* Reported Jan 3 6:00 pm — Jan 18 6:00 pm, Kalisz, Weather by CustomWeather, © 2017

Note: Actual official high and low records may vary slightly from our data, if they occured in-between our weather recording intervals... More about our weather records

Advertising

Kalisz Weather History for the Previous 24 Hours

Scroll right to see more
 ConditionsComfort  
Time TempWeatherWind HumidityBarometerVisibility
6:00 pm
Wed, Jan 18
19 °FFog.1 mph98%30.78 "Hg0 mi
5:00 pm19 °FFog.2 mph98%30.79 "Hg0 mi
4:00 pm19 °FFog.2 mph98%30.78 "Hg0 mi
3:00 pm19 °FFog.2 mph98%30.78 "Hg0 mi
2:00 pm18 °FFog.1 mph98%30.78 "Hg0 mi
1:00 pm18 °FFog.1 mph98%30.78 "Hg0 mi
12:00 pm18 °FFog.2 mph97%30.78 "Hg0 mi
11:00 am17 °FFog.3 mph98%30.80 "Hg0 mi
10:00 am17 °FFog.2 mph97%30.79 "Hg0 mi
9:00 am16 °FFog.2 mph97%30.79 "Hg0 mi
8:00 am16 °FFog.2 mph97%30.77 "Hg0 mi
7:00 am15 °FFog.2 mph97%30.75 "Hg0 mi
6:00 am15 °FFog.1 mph97%30.74 "Hg0 mi
5:00 am15 °FFog.2 mph97%30.73 "Hg0 mi
4:00 am15 °FFog.1 mph97%30.74 "Hg0 mi
3:00 am15 °FFog.1 mph97%30.74 "Hg0 mi
2:00 am15 °FFog.2 mph97%30.73 "Hg0 mi
1:00 am16 °FFog.2 mph97%30.72 "Hg0 mi
12:00 am15 °FFog.2 mph97%30.71 "Hg0 mi
11:00 pm
Tue, Jan 17
14 °FFog.1 mph98%30.71 "Hg0 mi
10:00 pm20 °FFog.1 mph99%30.70 "Hg0 mi
9:00 pm22 °FFog.3 mph96%30.69 "Hg1 mi
8:00 pm22 °FFog.3 mph92%30.68 "Hg1 mi
7:00 pm25 °FFog.3 mph93%30.66 "Hg2 mi
Weather by CustomWeather, © 2017

See weather overviewHow to use our weather pages